Location: Praha
(50.0830°N, 14.4670°E)
Time: 07:02:05
(UTC+02:00)

ISS - Pass Details

Date: 29 May 2023
Orbit: 411 x 418 km, 51.6° (Epoch: 07 June)

Event Time Altitude Azimuth Distance (km) Brightness Sun altitude
Rises 21:57:04 0° 283° (WNW) 2,357 1.1 -7.7°
Reaches altitude 10° 21:59:44 10° 260° (W) 1,492 -0.5 -8.0°
Maximum altitude 22:01:51 16° 221° (SW) 1,183 -1.5 -8.2°
Drops below altitude 10° 22:03:58 10° 181° (S) 1,490 -1.4 -8.4°
Enters shadow 22:04:35 - 174° (S) 1,664 -1.2 -8.5°
